1504404000.46,18712,18.75,73208.0,1.95,1.25,1.25,0,*7D
1504404001.73,18713,18.75,73208.8,1.93,1.37,1.37,0,*7A
1504404002.99,18714,18.75,73210.5,1.97,1.37,1.37,0,*79
1504404004.22,18715,18.75,73214.8,1.95,1.09,1.09,0,*7A
1504404005.43,18716,18.75,73212.8,1.95,1.05,1.17,0,*7A
1504404006.66,18717,18.75,73210.5,1.95,1.17,1.17,0,*78
1504404007.89,18718,18.75,73212.8,1.95,1.21,1.25,0,*73
1504404009.14,18719,18.75,73210.3,1.97,1.25,1.25,0,*74
1504404010.39,18720,18.75,73218.8,1.97,1.25,1.25,0,*7E
1504404011.65,18721,18.75,73214.8,1.97,1.13,1.13,0,*7F
1504404012.92,18722,18.75,73216.3,1.97,1.21,1.21,0,*7C
1504404014.18,18723,18.75,73214.8,1.97,1.21,1.21,0,*7D
1504404015.43,18724,18.75,73214.3,1.97,1.25,1.25,0,*7A
1504404016.66,18725,18.75,73216.8,1.95,1.21,1.25,0,*7D
1504404017.92,18726,18.75,73214.3,1.97,1.29,1.25,0,*74
1504404019.18,18727,18.75,73212.3,1.97,1.37,1.37,0,*79
1504404020.37,18728,18.75,73210.5,1.97,1.41,1.41,0,*76
1504404021.59,18729,18.75,73208.0,1.97,1.47,1.41,0,*71
1504404022.78,18730,18.75,73206.0,1.97,1.41,1.41,0,*7F
1504404024.01,18731,18.75,73208.3,1.97,1.37,1.41,0,*7F
1504404025.25,18732,18.75,73208.0,2.01,1.43,1.43,0,*71
1504404026.48,18733,18.75,73206.8,1.99,1.51,1.55,0,*76
1504404027.7,18734,18.75,73206.8,1.99,1.51,1.55,0,*71
1504404028.95,18735,18.75,73208.5,1.97,1.63,1.63,0,*7A
1504404030.13,18736,18.75,73202.5,1.99,1.75,1.75,0,*77
1504404031.33,18737,18.75,73204.5,1.99,1.75,1.67,0,*75
1504404032.51,18738,18.75,73208.3,1.99,1.79,1.75,0,*75
1504404033.69,18739,18.75,73206.8,1.99,1.75,1.75,0,*78
1504404034.94,18740,18.75,73206.0,2.01,1.67,1.67,0,*74
1504404036.19,18741,18.75,73208.0,2.01,1.63,1.63,0,*75
1504404037.44,18742,18.75,73210.5,2.01,1.63,1.63,0,*76
1504404038.69,18743,18.75,73214.0,2.01,1.63,1.67,0,*73
1504404039.94,18744,18.75,73218.3,2.01,1.67,1.67,0,*70
1504404041.16,18745,18.75,73212.5,2.03,1.67,1.71,0,*74
1504404042.38,18746,18.75,73210.8,2.03,1.67,1.71,0,*77
1504404043.61,18747,18.75,73208.0,2.03,1.59,1.67,0,*7C
1504404044.83,18748,18.75,73214.8,2.03,1.59,1.59,0,*7E
1504404046.05,18749,18.75,73214.0,2.03,1.59,1.59,0,*7F
1504404047.27,18750,18.75,73214.8,2.03,1.59,1.59,0,*77
1504404048.5,18751,18.75,73210.8,2.03,1.59,1.59,0,*76
1504404049.75,18752,18.75,73212.5,2.05,1.59,1.55,0,*7F
1504404051.0,18753,18.75,73218.3,2.05,1.55,1.59,0,*7E
1504404052.26,18754,18.75,73210.0,2.05,1.55,1.55,0,*75
1504404053.51,18755,18.75,73208.8,2.05,1.55,1.43,0,*73
1504404054.73,18756,18.75,73206.5,2.03,1.47,1.47,0,*71
1504404055.96,18757,18.75,73218.3,2.03,1.47,1.47,0,*70
1504404057.21,18758,18.75,73216.8,2.05,1.43,1.37,0,*7A
1504404058.48,18759,18.75,73216.3,2.05,1.33,1.33,0,*78
1504404059.74,18760,18.75,73212.5,2.05,1.37,1.37,0,*72
1504404060.96,18761,18.75,73214.3,2.03,1.43,1.43,0,*75
1504404062.19,18762,18.75,73216.0,2.03,1.47,1.47,0,*76
1504404063.41,18763,18.75,73212.5,2.03,1.47,1.43,0,*73
1504404064.63,18764,18.75,73214.0,2.03,1.47,1.43,0,*74
1504404065.87,18765,18.75,73214.8,2.03,1.37,1.37,0,*71
1504404067.11,18766,18.75,73214.8,2.03,1.37,1.33,0,*76
1504404068.35,18767,18.75,73214.3,2.03,1.37,1.37,0,*73
1504404069.58,18768,18.75,73212.0,2.03,1.43,1.43,0,*7C
1504404070.8,18769,18.75,73212.5,2.03,1.43,1.43,0,*7D
1504404072.04,18770,18.75,73214.5,2.03,1.37,1.33,0,*71
1504404073.28,18771,18.75,73218.0,2.03,1.33,1.33,0,*74
1504404074.55,18772,18.75,73214.5,2.05,1.37,1.37,0,*71
1504404075.8,18773,18.75,73212.8,2.05,1.37,1.43,0,*73
1504404077.03,18774,18.75,73208.5,2.03,1.47,1.43,0,*75
1504404078.25,18775,18.75,73206.0,2.03,1.43,1.43,0,*70
1504404079.49,18776,18.75,73204.5,2.03,1.33,1.33,0,*73
1504404080.75,18777,18.75,73210.5,2.05,1.29,1.33,0,*7F
1504404081.99,18778,18.75,73204.5,2.03,1.09,1.09,0,*7D
1504404083.19,18779,18.75,73210.3,2.03,0.97,0.87,0,*7D
1504404084.44,18780,18.75,73204.5,2.01,0.71,0.71,0,*78
1504404085.65,18781,18.75,73206.8,2.03,0.63,0.63,0,*7B
1504404086.89,18782,18.75,73204.5,2.01,0.71,0.71,0,*7A
1504404088.14,18783,18.75,73204.5,2.01,0.83,0.83,0,*7B
1504404089.39,18784,18.75,73202.0,2.01,0.91,0.83,0,*7F
1504404090.64,18785,18.75,73204.3,2.01,0.79,0.79,0,*7D
1504404091.88,18786,18.75,73206.5,1.97,0.55,0.55,0,*72
1504404093.09,18787,18.75,73200.5,1.99,0.71,0.67,0,*7A
1504404094.31,18788,18.75,73198.0,1.99,0.79,0.71,0,*7A
1504404095.51,18789,18.75,73206.3,1.97,1.01,0.97,0,*43
1504404096.73,18790,18.75,73208.5,1.99,1.25,1.25,0,*7B
1504404097.99,18791,18.75,73214.3,1.97,1.25,1.21,0,*70
1504404099.18,18792,18.75,73214.8,1.97,1.41,1.41,0,*77
1504404100.4,18793,18.75,73220.5,1.99,1.43,1.51,0,*7B
1504404101.62,18794,18.75,73216.0,1.99,1.43,1.43,0,*7F
1504404102.85,18795,18.75,73214.5,1.99,1.51,1.55,0,*7A
1504404104.08,18796,18.75,73216.8,1.99,1.55,1.55,0,*7D
1504404105.3,18797,18.75,73212.5,1.99,1.51,1.67,0,*79
1504404106.52,18798,18.75,73210.8,1.99,1.67,1.63,0,*77
1504404107.72,18799,18.75,73214.0,1.99,1.67,1.75,0,*71
1504404108.9,18800,18.75,73214.5,1.99,1.79,1.75,0,*71
1504404110.11,18801,18.75,73202.3,2.01,1.75,1.75,0,*7E
1504404111.29,18802,18.75,73200.8,2.03,1.79,1.83,0,*7A
1504404112.5,18803,18.75,73202.3,2.01,1.75,1.75,0,*7C
1504404113.68,18804,18.75,73208.3,2.03,1.83,1.83,0,*79
1504404114.88,18805,18.75,73208.5,2.01,1.75,1.75,0,*7A
1504404116.07,18806,18.75,73208.8,2.03,1.79,1.83,0,*7E
1504404117.25,18807,18.75,73204.8,2.03,1.83,1.79,0,*7F
1504404118.43,18808,18.75,73212.5,2.03,1.79,1.79,0,*75
1504404119.61,18809,18.75,73216.5,2.03,1.83,1.79,0,*71
1504404120.84,18810,18.75,73214.0,2.03,1.93,1.93,0,*7C
1504404122.09,18811,18.75,73212.5,2.05,2.01,2.01,0,*7B
1504404123.35,18812,18.75,73208.3,2.05,2.01,2.05,0,*7C
1504404124.57,18813,18.75,73214.3,2.07,2.05,2.05,0,*7B
1504404125.83,18814,18.75,73216.5,2.05,1.93,2.01,0,*76
1504404127.05,18815,18.75,73216.3,2.07,1.93,1.93,0,*7D
1504404128.27,18816,18.75,73222.3,2.07,1.93,1.93,0,*7E
1504404129.49,18817,18.75,73222.0,2.07,1.97,1.97,0,*7F
1504404130.72,18818,18.75,73212.0,2.07,1.97,1.97,0,*70
1504404131.94,18819,18.75,73222.0,2.07,1.97,1.97,0,*71
1504404133.16,18820,18.75,73216.8,2.07,1.97,1.97,0,*7B
1504404134.4,18821,18.75,73224.3,2.11,2.01,2.01,0,*7D
1504404135.63,18822,18.75,73226.0,2.11,2.01,2.13,0,*7D
1504404136.89,18823,18.75,73224.5,2.13,2.09,2.13,0,*76
1504404138.15,18824,18.75,73228.5,2.13,2.13,2.17,0,*7E
1504404139.4,18825,18.75,73228.0,2.13,2.25,2.17,0,*7A
1504404140.67,18826,18.75,73224.3,2.13,2.17,2.13,0,*7C
1504404141.89,18827,18.75,73226.5,2.15,2.21,2.21,0,*7F
1504404143.12,18828,18.75,73226.3,2.15,2.17,2.21,0,*75
1504404144.38,18829,18.75,73220.5,2.17,2.13,2.17,0,*77
1504404145.63,18830,18.75,73216.8,2.17,2.13,2.13,0,*7B
1504404146.89,18831,18.75,73216.8,2.17,2.13,2.17,0,*7E
1504404148.15,18832,18.75,73216.0,2.17,2.05,2.13,0,*7E
1504404149.41,18833,18.75,73222.3,2.17,2.05,2.13,0,*7F
1504404150.64,18834,18.75,73216.8,2.15,2.13,2.13,0,*7D
1504404151.9,18835,18.75,73212.8,2.17,2.13,2.13,0,*7E
1504404153.13,18836,18.75,73206.5,2.19,2.17,2.21,0,*76
1504404154.35,18837,18.75,73200.0,2.19,2.21,2.21,0,*72
1504404155.57,18838,18.75,73204.3,2.19,2.21,2.17,0,*78
1504404156.83,18839,18.75,73204.8,2.21,2.21,2.25,0,*73
1504404158.08,18840,18.75,73202.0,2.21,2.21,2.21,0,*79
1504404159.33,18841,18.75,73202.0,2.21,2.13,2.21,0,*79
1504404160.54,18842,18.75,73206.0,2.21,1.75,1.79,0,*77
1504404161.76,18843,18.75,73210.5,2.19,1.59,1.59,0,*71
1504404163.03,18844,18.75,73210.5,2.21,1.29,1.37,0,*72
1504404164.2,18845,18.75,73206.8,2.19,1.01,1.01,0,*77
1504404165.47,18846,18.75,73204.5,2.21,1.37,1.37,0,*7F
1504404166.7,18847,18.75,73204.5,2.19,1.51,1.51,0,*75
1504404167.92,18848,18.75,73202.3,2.19,1.59,1.51,0,*72
1504404169.14,18849,18.75,73194.3,2.19,1.47,1.47,0,*7B
1504404170.39,18850,18.75,73186.3,2.17,1.43,1.43,0,*7D
1504404171.64,18851,18.75,73180.0,2.17,1.55,1.59,0,*70
1504404172.89,18852,18.75,73176.8,2.17,1.71,1.59,0,*75
1504404174.14,18853,18.75,73172.8,2.17,1.71,1.71,0,*7E
1504404175.39,18854,18.75,73174.8,2.17,1.67,1.71,0,*7E
1504404176.61,18855,18.75,73174.0,2.19,1.71,1.71,0,*76
1504404177.84,18856,18.75,73170.5,2.19,1.63,1.51,0,*74
1504404179.06,18857,18.75,73170.0,2.19,1.59,1.63,0,*7D
1504404180.28,18858,18.75,73174.8,2.19,1.51,1.47,0,*7C
1504404181.5,18859,18.75,73182.5,2.19,1.51,1.47,0,*7D
1504404182.75,18860,18.75,73180.3,2.17,1.47,1.55,0,*7D
1504404184.0,18861,18.75,73178.8,2.17,1.43,1.47,0,*7B
1504404185.26,18862,18.75,73176.0,2.17,1.55,1.55,0,*7C
1504404186.51,18863,18.75,73186.3,2.17,1.59,1.55,0,*71
1504404187.76,18864,18.75,73188.3,2.17,1.43,1.43,0,*7A
1504404188.98,18865,18.75,73190.5,2.19,1.51,1.51,0,*75
1504404190.2,18866,18.75,73188.3,2.19,1.59,1.59,0,*76
1504404191.44,18867,18.75,73188.8,2.17,1.59,1.59,0,*79
1504404192.7,18868,18.75,73188.3,2.17,1.43,1.33,0,*71
1504404193.96,18869,18.75,73192.5,2.17,1.09,1.17,0,*78
1504404195.15,18870,18.75,73202.8,2.17,0.97,0.97,0,*7F
1504404196.37,18871,18.75,73200.5,2.15,0.75,0.83,0,*75
1504404197.59,18872,18.75,73204.3,2.15,0.83,0.71,0,*72
1504404198.81,18873,18.75,73202.0,2.15,0.83,0.75,0,*77
1504404199.98,18874,18.75,73204.3,2.15,1.05,1.05,0,*79
1504404201.16,18875,18.75,73202.3,2.15,1.05,0.97,0,*42
1504404202.34,18876,18.75,73204.8,2.11,1.05,1.01,0,*7B
1504404203.5,18877,18.75,73204.8,2.11,0.43,0.43,0,*7E
1504404204.72,18878,18.75,73202.3,2.11,0.41,0.29,0,*7F
1504404205.93,18879,18.75,73202.5,2.07,0.17,0.25,0,*76
1504404207.14,18880,18.75,73202.3,2.05,0.43,0.33,0,*74
1504404208.38,18881,18.75,73206.3,2.05,0.25,0.21,0,*76
1504404209.59,18882,18.75,73204.5,2.01,-8.29,-9.05,0,*7A
1504404210.81,18883,18.75,73210.5,1.93,-5.55,-6.05,0,*7A
1504404212.04,18884,18.75,73208.5,1.89,-3.91,-4.21,0,*7C
1504404213.26,18885,18.75,73210.3,1.83,-2.71,-2.99,0,*7D
1504404214.5,18886,18.75,73206.0,1.83,-1.83,-2.07,0,*77
1504404215.76,18887,18.75,73204.3,1.81,-1.09,-1.13,0,*70
1504404216.96,18888,18.75,73212.5,1.81,-0.53,-0.61,0,*75
1504404218.15,18889,18.75,73208.0,1.79,-0.29,-0.41,0,*7C
1504404219.33,18890,18.75,73214.8,1.79,-0.29,-0.37,0,*75
1504404220.59,18891,18.75,73210.0,1.77,-0.27,-0.27,0,*75
1504404221.78,18892,18.75,73212.3,1.75,0.13,0.05,0,*43
1504404223.03,18893,18.75,73214.0,1.77,0.21,0.21,0,*77
1504404224.22,18894,18.75,73210.0,1.77,0.09,0.05,0,*7C
1504404225.42,18895,18.75,73212.3,1.77,0.09,0.05,0,*7D
1504404226.59,18896,18.75,73214.3,1.75,-0.07,-0.07,0,*70
1504404227.79,18897,18.75,73214.0,1.77,0.05,-0.03,0,*58
1504404229.01,18898,18.75,73214.3,1.75,0.21,0.21,0,*7E
1504404230.18,18899,18.75,73210.8,1.75,0.05,-0.07,0,*50
1504404231.39,18900,18.75,73212.0,1.75,-0.23,-0.29,0,*74
1504404232.57,18901,18.75,73210.5,1.75,-0.11,-0.19,0,*77
1504404233.76,18902,18.75,73210.0,1.75,0.13,0.05,0,*4B
1504404235.0,18903,18.75,73210.5,1.73,0.17,0.17,0,*7B
1504404236.21,18904,18.75,73214.3,1.71,-0.11,-0.11,0,*7E
1504404237.44,18905,18.75,73210.0,1.71,-0.15,-0.23,0,*7A
1504404238.65,18906,18.75,73210.8,1.71,-0.11,-0.15,0,*78
1504404239.86,18907,18.75,73208.5,1.71,-0.15,-0.15,0,*7D
1504404241.09,18908,18.75,73212.3,1.71,-0.27,-0.33,0,*77
1504404242.27,18909,18.75,73214.3,1.69,-0.33,-0.37,0,*7E
1504404243.5,18910,18.75,73214.5,1.67,-0.27,-0.29,0,*72
1504404244.7,18911,18.75,73210.8,1.69,-0.15,-0.23,0,*76
1504404245.9,18912,18.75,73212.5,1.67,-0.29,-0.37,0,*71
1504404247.08,18913,18.75,73210.0,1.65,-0.37,-0.37,0,*7D
1504404248.26,18914,18.75,73212.0,1.65,-0.33,-0.41,0,*7F
1504404249.44,18915,18.75,73210.5,1.61,-0.57,-0.57,0,*7F
1504404250.63,18916,18.75,73214.8,1.61,-0.41,-0.45,0,*78
1504404251.8,18917,18.75,73214.8,1.65,-0.29,-0.37,0,*76
1504404253.0,18918,18.75,73212.5,1.61,-0.41,-0.41,0,*72
1504404254.2,18919,18.75,73218.5,1.61,-0.23,-0.33,0,*72
1504404255.39,18920,18.75,73214.3,1.61,-0.19,-0.33,0,*71
1504404256.63,18921,18.75,73212.8,1.59,-0.27,-0.33,0,*76
1504404257.84,18922,18.75,73216.0,1.59,-0.03,-0.15,0,*47
1504404259.04,18923,18.75,73212.0,1.57,0.13,0.13,0,*7F
1504404260.25,18924,18.75,73212.5,1.57,0.25,0.25,0,*78
1504404261.5,18925,18.75,73212.5,1.59,0.25,0.25,0,*77
1504404262.71,18926,18.75,73216.0,1.57,0.25,0.17,0,*7B
1504404263.91,18927,18.75,73212.8,1.57,0.17,0.17,0,*7B
1504404265.1,18928,18.75,73216.5,1.59,0.01,-0.03,0,*55
1504404266.28,18929,18.75,73212.8,1.57,-0.03,-0.11,0,*46
1504404267.5,18930,18.75,73212.5,1.59,-0.11,-0.11,0,*73
1504404268.66,18931,18.75,73214.8,1.57,0.05,0.01,0,*78
1504404269.87,18932,18.75,73212.5,1.57,0.17,0.17,0,*7F
1504404271.08,18933,18.75,73214.3,1.57,0.25,0.37,0,*7D
1504404272.29,18934,18.75,73212.5,1.57,0.47,0.41,0,*7F
1504404273.51,18935,18.75,73214.0,1.57,0.59,0.59,0,*78
1504404274.72,18936,18.75,73218.3,1.57,0.63,0.71,0,*78
1504404275.93,18937,18.75,73216.0,1.57,0.41,0.37,0,*7B
1504404277.17,18938,18.75,73214.3,1.59,0.29,0.17,0,*76
1504404278.38,18939,18.75,73212.0,1.57,0.29,0.29,0,*74
1504404279.6,18940,18.75,73208.5,1.57,0.41,0.37,0,*7B
1504404280.82,18941,18.75,73206.8,1.57,0.47,0.47,0,*7B
1504404282.03,18942,18.75,73212.5,1.57,0.63,0.59,0,*71
1504404283.24,18943,18.75,73214.3,1.57,0.41,0.25,0,*7B
1504404284.44,18944,18.75,73210.0,1.55,0.09,-0.03,0,*5B
1504404285.68,18945,18.75,73208.0,1.55,0.21,0.13,0,*7C
1504404286.89,18946,18.75,73208.8,1.53,0.33,0.33,0,*78
1504404288.1,18947,18.75,73204.3,1.55,0.43,0.37,0,*7C
1504404289.3,18948,18.75,73204.0,1.53,0.55,0.43,0,*71
1504404290.52,18949,18.75,73204.3,1.57,0.51,0.59,0,*7B
1504404291.73,18950,18.75,73202.5,1.57,0.51,0.51,0,*7B
1504404292.95,18951,18.75,73204.0,1.53,0.47,0.47,0,*7E
1504404294.15,18952,18.75,73200.8,1.53,0.47,0.43,0,*79
1504404295.35,18953,18.75,73202.3,1.53,0.55,0.43,0,*7B
1504404296.59,18954,18.75,73202.8,1.55,0.59,0.55,0,*71
1504404297.81,18955,18.75,73202.5,1.53,0.59,0.67,0,*77
1504404299.03,18956,18.75,73204.3,1.53,0.55,0.55,0,*79
1504404300.28,18957,18.75,73204.8,1.55,0.55,0.47,0,*7D
1504404301.53,18958,18.75,73204.3,1.55,0.59,0.55,0,*7D
1504404302.78,18959,18.75,73210.5,1.55,0.59,0.55,0,*7C
1504404304.02,18960,18.75,73206.5,1.55,0.59,0.55,0,*76
1504404305.24,18961,18.75,73210.3,1.53,0.59,0.55,0,*71
1504404306.48,18962,18.75,73210.5,1.55,0.67,0.55,0,*79
1504404307.7,18963,18.75,73210.8,1.53,0.67,0.59,0,*72
1504404308.93,18964,18.75,73210.8,1.55,0.67,0.67,0,*7E
1504404310.18,18965,18.75,73208.8,1.55,0.47,0.55,0,*7C
1504404311.43,18966,18.75,73206.3,1.55,0.59,0.59,0,*7C
1504404312.67,18967,18.75,73206.8,1.55,0.59,0.59,0,*7D
1504404313.89,18968,18.75,73206.0,1.53,0.59,0.55,0,*78
1504404315.12,18969,18.75,73206.8,1.55,0.67,0.67,0,*73
1504404316.37,18970,18.75,73210.8,1.55,0.67,0.59,0,*76
1504404317.61,18971,18.75,73206.5,1.55,0.71,0.67,0,*7D
1504404318.85,18972,18.75,73208.3,1.55,0.67,0.59,0,*74
1504404320.08,18973,18.75,73210.0,1.55,0.67,0.67,0,*78
1504404321.33,18974,18.75,73210.8,1.55,0.59,0.55,0,*73
1504404322.57,18975,18.75,73210.0,1.55,0.25,0.25,0,*7E
1504404323.82,18976,18.75,73210.0,1.55,0.21,0.21,0,*7D
1504404325.06,18977,18.75,73206.0,1.55,0.13,0.13,0,*7C
1504404326.24,18978,18.75,73200.5,1.53,0.13,0.01,0,*46
1504404327.43,18979,18.75,73198.0,1.53,0.21,0.09,0,*4E
1504404328.6,18980,18.75,73196.0,1.53,0.43,0.43,0,*72
1504404329.82,18981,18.75,73200.3,1.53,0.59,0.55,0,*7F
1504404331.06,18982,18.75,73202.0,1.55,0.59,0.59,0,*76
1504404332.27,18983,18.75,73202.5,1.53,0.37,0.37,0,*71
1504404333.52,18984,18.75,73206.8,1.51,0.21,0.29,0,*7C
1504404334.73,18985,18.75,73208.0,1.53,0.13,0.13,0,*77
1504404335.91,18986,18.75,73210.8,1.53,0.01,0.13,0,*47
1504404337.17,18987,18.75,73214.5,1.51,-0.23,-0.23,0,*77
1504404338.38,18988,18.75,73218.8,1.51,-0.19,-0.29,0,*7B
1504404339.55,18989,18.75,73218.8,1.49,-0.33,-0.45,0,*71
1504404340.76,18990,18.75,73208.3,1.49,-0.27,-0.37,0,*79
1504404341.95,18991,18.75,73208.8,1.45,-0.29,-0.37,0,*7A
1504404343.19,18992,18.75,73208.3,1.47,-0.27,-0.33,0,*71
1504404344.38,18993,18.75,73208.5,1.45,-0.41,-0.49,0,*7F
1504404345.56,18994,18.75,73208.0,1.45,-0.49,-0.53,0,*7B
1504404346.74,18995,18.75,73208.3,1.45,-0.19,-0.29,0,*72
1504404347.96,18996,18.75,73206.5,1.43,-0.19,-0.19,0,*74
1504404349.17,18997,18.75,73208.0,1.43,-0.15,-0.15,0,*75
1504404350.36,18998,18.75,73208.5,1.39,-0.07,-0.15,0,*44
1504404351.57,18999,18.75,73210.5,1.43,-0.03,-0.11,0,*48
1504404352.76,19000,18.75,73208.5,1.43,-0.03,0.01,0,*5C
1504404353.95,19001,18.75,73208.8,1.43,0.09,0.01,0,*7A
1504404355.17,19002,18.75,73218.0,1.39,0.17,0.21,0,*79
1504404356.42,19003,18.75,73216.8,1.43,0.33,0.21,0,*73
1504404357.59,19004,18.75,73218.5,1.39,0.09,0.09,0,*7A
1504404358.78,19005,18.75,73214.8,1.43,0.09,0.01,0,*7E
1504404359.95,19006,18.75,73220.8,1.39,-0.03,-0.07,0,*7C
1504404361.17,19007,18.75,73224.8,1.39,0.17,0.17,0,*79
1504404362.38,19008,18.75,73222.5,1.39,0.29,0.33,0,*7D
1504404363.57,19009,18.75,73224.5,1.39,0.43,0.51,0,*74
1504404364.8,19010,18.75,73224.0,1.39,0.55,0.63,0,*7A
1504404366.04,19011,18.75,73224.8,1.43,0.59,0.59,0,*73
1504404367.26,19012,18.75,73224.0,1.39,0.63,0.63,0,*7D
1504404368.49,19013,18.75,73222.5,1.43,0.67,0.67,0,*71
1504404369.74,19014,18.75,73220.0,1.43,0.71,0.67,0,*71
1504404370.95,19015,18.75,73220.0,1.39,0.63,0.63,0,*7A
1504404372.17,19016,18.75,73218.0,1.39,0.63,0.63,0,*79
1504404373.38,19017,18.75,73212.8,1.45,0.67,0.71,0,*74
1504404374.64,19018,18.75,73214.8,1.43,0.55,0.47,0,*79
1504404375.88,19019,18.75,73214.0,1.43,0.59,0.55,0,*77
1504404377.13,19020,18.75,73210.0,1.43,0.59,0.47,0,*7E
1504404378.36,19021,18.75,73212.8,1.43,0.67,0.67,0,*70
1504404379.6,19022,18.75,73214.8,1.43,0.67,0.67,0,*73
1504404380.84,19023,18.75,73210.5,1.43,0.59,0.59,0,*72
1504404382.09,19024,18.75,73204.0,1.43,0.55,0.47,0,*76
1504404383.3,19025,18.75,73206.3,1.43,0.43,0.37,0,*77
1504404384.55,19026,18.75,73198.3,1.43,0.25,0.33,0,*70
1504404385.79,19027,18.75,73194.5,1.43,0.25,0.25,0,*76
1504404387.02,19028,18.69,73190.5,1.43,0.33,0.33,0,*79
1504404388.26,19029,18.75,73192.0,1.43,0.37,0.33,0,*7C
1504404389.51,19030,18.75,73196.0,1.43,0.55,0.55,0,*70
1504404390.76,19031,18.75,73194.3,1.43,0.47,0.47,0,*71
1504404391.98,19032,18.75,73196.0,1.43,0.47,0.43,0,*76
1504404393.18,19033,18.75,73200.0,1.43,0.09,-0.03,0,*54
1504404394.39,19034,18.75,73196.8,1.43,-0.19,-0.29,0,*77
1504404395.57,19035,18.75,73194.0,1.39,-0.53,-0.53,0,*78
1504404396.8,19036,18.75,73196.0,1.43,-0.27,-0.29,0,*78
1504404397.98,19037,18.75,73202.5,1.39,-0.07,-0.07,0,*7A
1504404399.15,19038,18.75,73204.0,1.39,-0.07,-0.07,0,*75
1504404400.32,19039,18.75,73206.8,1.39,0.05,0.05,0,*74
1504404401.54,19040,18.75,73204.5,1.39,0.29,0.29,0,*7A
1504404402.71,19041,18.75,73204.3,1.39,0.43,0.43,0,*7B
1504404403.93,19042,18.75,73208.8,1.37,0.51,0.43,0,*75
1504404405.17,19043,18.75,73210.5,1.37,0.55,0.51,0,*73
1504404406.36,19044,18.75,73208.0,1.37,0.43,0.43,0,*70
1504404407.6,19045,18.75,73210.0,1.37,0.33,0.33,0,*71
1504404408.83,19046,18.75,73212.0,1.37,0.33,0.33,0,*72
1504404410.06,19047,18.75,73210.8,1.37,0.41,0.41,0,*73
1504404411.28,19048,18.75,73210.8,1.37,0.41,0.43,0,*7E
1504404412.44,19049,18.75,73212.0,1.35,0.43,0.43,0,*7F
1504404413.65,19050,18.75,73218.8,1.37,0.43,0.41,0,*77
1504404414.87,19051,18.75,73214.0,1.39,0.33,0.21,0,*79
1504404416.1,19052,18.75,73214.0,1.37,0.33,0.33,0,*77
1504404417.33,19053,18.75,73216.8,1.37,0.33,0.41,0,*73
1504404418.54,19054,18.75,73216.3,1.35,0.33,0.33,0,*73
1504404419.75,19055,18.75,73214.8,1.35,0.17,0.25,0,*73
1504404420.99,19056,18.75,73214.0,1.37,0.29,0.29,0,*73
1504404422.2,19057,18.69,73212.5,1.35,0.25,0.29,0,*7C
1504404423.41,19058,18.75,73218.5,1.35,0.29,0.17,0,*72
1504404424.6,19059,18.75,73216.8,1.35,-0.19,-0.19,0,*7E
1504404425.8,19060,18.75,73218.0,1.35,-0.11,-0.27,0,*71
1504404426.98,19061,18.75,73216.0,1.35,-0.19,-0.19,0,*75
1504404428.2,19062,18.75,73216.8,1.33,-0.11,-0.15,0,*74
1504404429.38,19063,18.75,73218.3,1.31,-0.03,-0.15,0,*44
1504404430.59,19064,18.75,73220.0,1.33,-0.11,-0.15,0,*72
1504404431.79,19065,18.75,73222.3,1.31,-0.11,-0.11,0,*75
1504404432.95,19066,18.69,73220.5,1.31,0.09,0.01,0,*7E
1504404434.16,19067,18.75,73222.5,1.31,0.13,0.13,0,*77
1504404435.35,19068,18.75,73224.0,1.31,-0.11,-0.11,0,*78
1504404436.54,19069,18.75,73222.8,1.27,-0.15,-0.15,0,*7E
1504404437.77,19070,18.75,73224.8,1.29,-0.19,-0.27,0,*75
1504404438.98,19071,18.75,73226.0,1.27,-0.19,-0.27,0,*7A
1504404440.17,19072,18.75,73226.5,1.27,-0.19,-0.19,0,*74
1504404441.37,19073,18.75,73226.0,1.29,-0.07,-0.15,0,*48
1504404442.55,19074,18.75,73228.0,1.27,-0.03,-0.07,0,*76
1504404443.73,19075,18.75,73230.3,1.27,-0.15,-0.15,0,*73
1504404444.92,19076,18.75,73228.3,1.27,-0.15,-0.19,0,*7C
1504404446.12,19077,18.75,73230.5,1.25,-0.07,-0.11,0,*44
1504404447.31,19078,18.75,73224.5,1.27,0.17,0.09,0,*41
1504404448.5,19079,18.75,73224.5,1.25,0.01,-0.07,0,*56
1504404449.7,19080,18.75,73226.5,1.25,-0.07,-0.07,0,*7B
1504404450.9,19081,18.75,73226.0,1.25,-0.07,-0.19,0,*45
1504404452.09,19082,18.75,73222.3,1.23,-0.11,-0.11,0,*7F
1504404453.31,19083,18.75,73220.8,1.25,-0.19,-0.11,0,*70
1504404454.5,19084,18.75,73222.3,1.23,-0.19,-0.19,0,*79
1504404455.69,19085,18.75,73218.3,1.23,-0.19,-0.19,0,*78
1504404456.92,19086,18.75,73218.0,1.21,-0.15,-0.23,0,*7C
1504404458.17,19087,18.75,73218.8,1.21,-0.27,-0.27,0,*78
1504404459.38,19088,18.75,73216.8,1.21,-0.11,-0.15,0,*73
1504404460.6,19089,18.75,73214.5,1.21,-0.11,-0.11,0,*76
1504404461.79,19090,18.75,73212.5,1.21,0.09,0.09,0,*7E
1504404462.98,19091,18.75,73214.0,1.21,0.09,0.09,0,*7F
1504404464.17,19092,18.75,73218.3,1.17,0.09,0.09,0,*79
1504404465.42,19093,18.75,73212.0,1.17,0.21,0.17,0,*7D
1504404466.65,19094,18.75,73212.0,1.21,0.37,0.33,0,*7E
1504404467.84,19095,18.75,73214.0,1.21,0.43,0.43,0,*7B
1504404469.02,19096,18.75,73214.5,1.21,0.43,0.43,0,*78
1504404470.27,19097,18.75,73214.8,1.17,0.29,0.29,0,*7C
1504404471.46,19098,18.75,73214.5,1.21,0.09,0.09,0,*76
1504404472.66,19099,18.75,73216.0,1.17,-0.03,-0.03,0,*72
1504404473.86,19100,18.75,73210.3,1.17,-0.29,-0.29,0,*73
1504404475.07,19101,18.75,73208.8,1.21,-0.15,-0.15,0,*77
1504404476.26,19102,18.75,73208.5,1.21,0.09,0.09,0,*74
1504404477.51,19103,18.75,73208.3,1.17,0.21,0.21,0,*70
1504404478.75,19104,18.75,73208.8,1.17,0.21,0.29,0,*7F
1504404479.99,19105,18.75,73202.8,1.17,0.17,0.21,0,*73
1504404481.23,19106,18.75,73200.8,1.17,0.17,0.17,0,*75
1504404482.47,19107,18.75,73210.5,1.17,0.17,0.17,0,*74
1504404483.71,19108,18.75,73218.5,1.17,0.21,0.17,0,*7E
1504404484.95,19109,18.75,73216.0,1.17,0.29,0.29,0,*7A
1504404486.19,19110,18.75,73212.8,1.17,0.41,0.33,0,*77
1504404487.38,19111,18.75,73216.8,1.21,0.43,0.43,0,*76
1504404488.62,19112,18.75,73220.5,1.17,0.47,0.41,0,*76
1504404489.87,19113,18.75,73218.0,1.17,0.47,0.55,0,*72
1504404491.11,19114,18.69,73216.8,1.17,0.59,0.59,0,*76
1504404492.35,19115,18.75,73220.0,1.21,0.75,0.83,0,*7B
1504404493.59,19116,18.75,73222.8,1.21,0.75,0.75,0,*71
1504404494.84,19117,18.75,73224.8,1.21,0.71,0.71,0,*70
1504404496.05,19118,18.75,73224.5,1.23,0.75,0.63,0,*7A
1504404497.28,19119,18.69,73224.5,1.23,0.87,0.87,0,*7C
1504404498.46,19120,18.75,73232.5,1.23,1.01,0.97,0,*48
1504404499.63,19121,18.75,73232.8,1.23,0.97,0.97,0,*77
1504404500.83,19122,18.75,73232.5,1.23,0.91,0.97,0,*72
1504404502.01,19123,18.75,73232.8,1.23,0.97,0.97,0,*75
1504404503.27,19124,18.75,73232.0,1.25,1.13,1.09,0,*7F
1504404504.54,19125,18.75,73230.5,1.25,1.13,1.21,0,*74
1504404505.8,19126,18.69,73226.5,1.29,1.33,1.33,0,*7A
1504404507.04,19127,18.75,73228.3,1.27,1.33,1.33,0,*75
1504404508.27,19128,18.75,73232.3,1.27,1.25,1.25,0,*7A
1504404509.51,19129,18.69,73228.5,1.31,1.37,1.37,0,*7C
1504404510.74,19130,18.75,73230.5,1.31,1.43,1.55,0,*73
1504404511.96,19131,18.75,73228.3,1.31,1.71,1.71,0,*75
1504404513.21,19132,18.75,73228.8,1.33,1.59,1.67,0,*79
1504404514.46,19133,18.69,73228.5,1.33,1.55,1.67,0,*74
1504404515.71,19134,18.69,73226.3,1.33,1.55,1.59,0,*7E
1504404516.88,19135,18.69,73230.0,1.35,1.41,1.41,0,*75
1504404518.1,19136,18.75,73232.0,1.35,0.51,0.63,0,*77
1504404519.29,19137,18.69,73230.5,1.31,0.37,0.43,0,*70
1504404520.51,19138,18.75,73228.8,1.31,0.71,0.71,0,*7C
1504404521.75,19139,18.75,73230.8,1.33,0.87,0.87,0,*7F
1504404522.97,19140,18.75,73230.8,1.33,0.95,0.97,0,*73
1504404524.2,19141,18.69,73228.3,1.33,0.95,0.95,0,*70
1504404525.42,19142,18.69,73230.0,1.33,0.95,0.97,0,*71
1504404526.65,19143,18.69,73230.5,1.33,0.95,0.95,0,*72
1504404527.83,19144,18.75,73234.0,1.35,0.97,1.01,0,*4D
1504404529.08,19145,18.75,73232.8,1.33,1.09,1.17,0,*7B